| time (UTC) | temp F | wind direction | speed MPH | gust MPH | rain 1hr in | rain 24hr in | rain mn in | humidity % | barometer mb |
| 20260904135631 | 55 | 63 | 0.0 | 3.0 | 0.00 | 0.00 | 0.00 | 45 | 1011.2 |
| 20260904134622 | 55 | 64 | 0.0 | 2.0 | 0.00 | 0.00 | 0.00 | 45 | 1011.0 |
| 20260904133617 | 54 | 64 | 1.0 | 4.0 | 0.00 | 0.00 | 0.00 | 46 | 1010.8 |
| 20260904132628 | 54 | 64 | 0.0 | 4.0 | 0.00 | 0.00 | 0.00 | 46 | 1010.8 |
| 20260904131620 | 53 | 63 | 1.0 | 5.0 | 0.00 | 0.00 | 0.00 | 45 | 1010.6 |
| 20260904130614 | 54 | 63 | 0.0 | 3.0 | 0.00 | 0.00 | 0.00 | 45 | 1010.5 |
| 20260904125636 | 54 | 63 | 3.0 | 4.0 | 0.00 | 0.00 | 0.00 | 45 | 1010.3 |
| 20260904124626 | 55 | 10 | 1.0 | 6.0 | 0.00 | 0.00 | 0.00 | 46 | 1010.1 |
| 20260904123617 | 55 | 290 | 1.0 | 7.0 | 0.00 | 0.00 | 0.00 | 46 | 1009.9 |
| 20260904122649 | 54 | 75 | 1.0 | 2.0 | 0.00 | 0.00 | 0.00 | 46 | 1009.7 |
| 20260904121623 | 53 | 75 | 0.0 | 4.0 | 0.00 | 0.00 | 0.00 | 49 | 1009.7 |
| 20260904120613 | 53 | 75 | 4.0 | 5.0 | 0.00 | 0.00 | 0.00 | 49 | 1009.6 |
| 20260904115634 | 55 | 340 | 3.0 | 5.0 | 0.00 | 0.00 | 0.00 | 49 | 1009.7 |
| 20260904114624 | 54 | 63 | 0.0 | 0.0 | 0.00 | 0.00 | 0.00 | 45 | 1009.5 |
| 20260904113619 | 53 | 63 | 0.0 | 4.0 | 0.00 | 0.00 | 0.00 | 49 | 1009.5 |
| 20260904112631 | 52 | 63 | 2.0 | 3.0 | 0.00 | 0.00 | 0.00 | 53 | 1009.6 |
| 20260904111622 | 52 | 63 | 1.0 | 4.0 | 0.00 | 0.00 | 0.00 | 54 | 1009.6 |
| 20260904110613 | 52 | 63 | 0.0 | 3.0 | 0.00 | 0.00 | 0.00 | 55 | 1009.5 |
| 20260904105619 | 52 | 63 | 3.0 | 4.0 | 0.00 | 0.00 | 0.00 | 54 | 1009.3 |
| 20260904104630 | 52 | 290 | 2.0 | 4.0 | 0.00 | 0.00 | 0.00 | 55 | 1009.2 |
| 20260904103621 | 51 | 155 | 0.0 | 2.0 | 0.00 | 0.00 | 0.00 | 55 | 1009.0 |
| 20260904102632 | 52 | 155 | 1.0 | 3.0 | 0.00 | 0.00 | 0.00 | 54 | 1008.9 |
| 20260904101627 | 52 | 155 | 1.0 | 2.0 | 0.00 | 0.00 | 0.00 | 54 | 1008.8 |
| 20260904100619 | 52 | 155 | 1.0 | 2.0 | 0.00 | 0.00 | 0.00 | 55 | 1008.6 |
| 20260904095619 | 52 | 155 | 2.0 | 3.0 | 0.00 | 0.00 | 0.00 | 55 | 1008.5 |
| 20260904094615 | 51 | 155 | 0.0 | 2.0 | 0.00 | 0.00 | 0.00 | 55 | 1008.5 |
| 20260904093647 | 51 | 155 | 0.0 | 5.0 | 0.00 | 0.00 | 0.00 | 55 | 1008.5 |
| 20260904092617 | 52 | 157 | 0.0 | 3.0 | 0.00 | 0.00 | 0.00 | 53 | 1008.4 |
| 20260904091650 | 53 | 157 | 3.0 | 5.0 | 0.00 | 0.00 | 0.00 | 52 | 1008.3 |
| 20260904090621 | 53 | 164 | 1.0 | 3.0 | 0.00 | 0.00 | 0.00 | 53 | 1008.2 |
| 20260904085626 | 53 | 164 | 0.0 | 3.0 | 0.00 | 0.00 | 0.00 | 53 | 1008.2 |
| 20260904084617 | 54 | 164 | 0.0 | 3.0 | 0.00 | 0.00 | 0.00 | 52 | 1008.1 |
| 20260904083629 | 54 | 164 | 0.0 | 3.0 | 0.00 | 0.00 | 0.00 | 52 | 1008.1 |
| 20260904082624 | 54 | 163 | 0.0 | 2.0 | 0.00 | 0.00 | 0.00 | 52 | 1008.0 |
| 20260904081616 | 54 | 163 | 1.0 | 2.0 | 0.00 | 0.00 | 0.00 | 51 | 1007.9 |
| 20260904080627 | 54 | 163 | 1.0 | 4.0 | 0.00 | 0.00 | 0.00 | 50 | 1008.0 |
| 20260904075629 | 54 | 163 | 1.0 | 3.0 | 0.00 | 0.00 | 0.00 | 51 | 1008.1 |
| 20260904074623 | 55 | 168 | 0.0 | 3.0 | 0.00 | 0.00 | 0.00 | 49 | 1008.2 |
| 20260904073613 | 55 | 168 | 0.0 | 2.0 | 0.00 | 0.00 | 0.00 | 49 | 1008.2 |
| 20260904072624 | 56 | 168 | 1.0 | 2.0 | 0.00 | 0.00 | 0.00 | 47 | 1008.1 |
| 20260904071615 | 56 | 168 | 0.0 | 3.0 | 0.00 | 0.00 | 0.00 | 48 | 1008.1 |
| 20260904070631 | 56 | 168 | 1.0 | 4.0 | 0.00 | 0.00 | 0.00 | 48 | 1008.1 |
| 20260904065612 | 57 | 168 | 0.0 | 0.0 | 0.00 | 0.00 | 0.00 | 47 | 1008.2 |
| 20260904064623 | 57 | 168 | 0.0 | 0.0 | 0.00 | 0.00 | 0.00 | 46 | 1008.1 |
| 20260904063618 | 57 | 168 | 0.0 | 0.0 | 0.00 | 0.00 | 0.00 | 46 | 1008.1 |
| 20260904062629 | 58 | 168 | 0.0 | 0.0 | 0.00 | 0.00 | 0.00 | 44 | 1008.1 |
| 20260904061622 | 58 | 168 | 1.0 | 2.0 | 0.00 | 0.00 | 0.00 | 45 | 1008.1 |
| 20260904060617 | 58 | 168 | 0.0 | 3.0 | 0.00 | 0.00 | 0.00 | 44 | 1007.9 |
| 20260904055619 | 59 | 168 | 2.0 | 4.0 | 0.00 | 0.00 | 0.00 | 44 | 1008.0 |
| 20260904054631 | 59 | 169 | 1.0 | 4.0 | 0.00 | 0.00 | 0.00 | 42 | 1008.0 |
| 20260904053620 | 60 | 169 | 2.0 | 3.0 | 0.00 | 0.00 | 0.00 | 43 | 1008.1 |
| 20260904052631 | 60 | 170 | 1.0 | 2.0 | 0.00 | 0.00 | 0.00 | 43 | 1008.1 |
| 20260904051621 | 59 | 170 | 0.0 | 2.0 | 0.00 | 0.00 | 0.00 | 43 | 1008.1 |
| 20260904050614 | 59 | 170 | 1.0 | 3.0 | 0.00 | 0.00 | 0.00 | 44 | 1008.1 |
| 20260904045614 | 58 | 170 | 0.0 | 2.0 | 0.00 | 0.00 | 0.00 | 46 | 1008.2 |
| 20260904044625 | 58 | 170 | 1.0 | 2.0 | 0.00 | 0.00 | 0.00 | 47 | 1008.2 |
| 20260904043619 | 59 | 170 | 2.0 | 5.0 | 0.00 | 0.00 | 0.00 | 47 | 1008.3 |
| 20260904042650 | 61 | 236 | 3.0 | 9.0 | 0.00 | 0.00 | 0.00 | 44 | 1008.4 |
| 20260904041618 | 66 | 263 | 5.0 | 8.0 | 0.00 | 0.00 | 0.00 | 36 | 1008.4 |
| 20260904040628 | 68 | 114 | 3.0 | 8.0 | 0.00 | 0.00 | 0.00 | 26 | 1008.0 |
| 20260904035612 | 67 | 65 | 4.0 | 5.0 | 0.00 | 0.00 | 0.00 | 28 | 1008.1 |
| 20260904034623 | 67 | 13 | 1.0 | 4.0 | 0.00 | 0.00 | 0.00 | 29 | 1008.2 |
| 20260904033632 | 68 | 13 | 2.0 | 8.0 | 0.00 | 0.00 | 0.00 | 28 | 1008.3 |
| 20260904032621 | 69 | 63 | 3.0 | 8.0 | 0.00 | 0.00 | 0.00 | 27 | 1008.3 |
| 20260904031615 | 69 | 68 | 5.0 | 9.0 | 0.00 | 0.00 | 0.00 | 27 | 1008.3 |
| 20260904030625 | 69 | 74 | 6.0 | 9.0 | 0.00 | 0.00 | 0.00 | 26 | 1008.4 |
| 20260904025625 | 70 | 67 | 5.0 | 8.0 | 0.00 | 0.00 | 0.00 | 26 | 1008.4 |
| 20260904024616 | 71 | 82 | 5.0 | 8.0 | 0.00 | 0.00 | 0.00 | 25 | 1008.4 |
| 20260904023629 | 70 | 96 | 6.0 | 9.0 | 0.00 | 0.00 | 0.00 | 25 | 1008.4 |
| 20260904022619 | 71 | 63 | 5.0 | 10.0 | 0.00 | 0.00 | 0.00 | 25 | 1008.6 |
| 20260904021631 | 71 | 101 | 7.0 | 9.0 | 0.00 | 0.00 | 0.00 | 25 | 1008.7 |
| 20260904020620 | 71 | 96 | 6.0 | 7.0 | 0.00 | 0.00 | 0.00 | 26 | 1008.7 |
| 20260904015623 | 72 | 116 | 4.0 | 6.0 | 0.00 | 0.00 | 0.00 | 27 | 1008.8 |
| 20260904014633 | 75 | 153 | 3.0 | 5.0 | 0.00 | 0.00 | 0.00 | 27 | 1008.9 |
| 20260904013643 | 77 | 217 | 2.0 | 3.0 | 0.00 | 0.00 | 0.00 | 24 | 1008.9 |
| 20260904012612 | 78 | 218 | 1.0 | 2.0 | 0.00 | 0.00 | 0.00 | 22 | 1009.0 |
| 20260904011625 | 79 | 219 | 2.0 | 4.0 | 0.00 | 0.00 | 0.00 | 20 | 1009.2 |
| 20260904010616 | 79 | 243 | 2.0 | 7.0 | 0.00 | 0.00 | 0.00 | 20 | 1009.3 |
| 20260904005636 | 80 | 245 | 4.0 | 7.0 | 0.00 | 0.00 | 0.00 | 20 | 1009.3 |
| 20260904004622 | 80 | 259 | 4.0 | 7.0 | 0.00 | 0.00 | 0.00 | 19 | 1009.4 |
| 20260904003617 | 81 | 261 | 3.0 | 10.0 | 0.00 | 0.00 | 0.00 | 19 | 1009.4 |
| 20260904002616 | 81 | 240 | 3.0 | 9.0 | 0.00 | 0.00 | 0.00 | 20 | 1009.4 |
| 20260904001627 | 81 | 259 | 4.0 | 9.0 | 0.00 | 0.00 | 0.00 | 18 | 1009.5 |
| 20260904000617 | 81 | 272 | 4.0 | 9.0 | 0.00 | 0.00 | 0.00 | 18 | 1009.4 |
| 20260903235618 | 81 | 215 | 5.0 | 9.0 | 0.00 | 0.00 | 0.00 | 18 | 1009.4 |
| 20260903234614 | 81 | 211 | 5.0 | 10.0 | 0.00 | 0.00 | 0.00 | 18 | 1009.5 |
| 20260903233625 | 81 | 248 | 6.0 | 11.0 | 0.00 | 0.00 | 0.00 | 18 | 1009.5 |
| 20260903232636 | 81 | 221 | 5.0 | 10.0 | 0.00 | 0.00 | 0.00 | 18 | 1009.6 |
| 20260903231627 | 81 | 238 | 5.0 | 9.0 | 0.00 | 0.00 | 0.00 | 18 | 1009.7 |
| 20260903230621 | 81 | 227 | 6.0 | 10.0 | 0.00 | 0.00 | 0.00 | 18 | 1009.8 |
| 20260903225624 | 81 | 236 | 5.0 | 10.0 | 0.00 | 0.00 | 0.00 | 17 | 1010.0 |
| 20260903224615 | 81 | 251 | 6.0 | 11.0 | 0.00 | 0.00 | 0.00 | 18 | 1010.0 |
| 20260903223626 | 80 | 159 | 6.0 | 12.0 | 0.00 | 0.00 | 0.00 | 18 | 1010.0 |
| 20260903222622 | 80 | 195 | 5.0 | 8.0 | 0.00 | 0.00 | 0.00 | 19 | 1010.2 |
| 20260903221613 | 80 | 220 | 7.0 | 11.0 | 0.00 | 0.00 | 0.00 | 18 | 1010.4 |
| 20260903220625 | 79 | 232 | 4.0 | 10.0 | 0.00 | 0.00 | 0.00 | 19 | 1010.5 |
| 20260903215626 | 80 | 184 | 3.0 | 11.0 | 0.00 | 0.00 | 0.00 | 18 | 1010.6 |
| 20260903214621 | 79 | 153 | 8.0 | 12.0 | 0.00 | 0.00 | 0.00 | 18 | 1010.8 |
| 20260903213632 | 79 | 221 | 5.0 | 9.0 | 0.00 | 0.00 | 0.00 | 19 | 1010.9 |
| 20260903212623 | 79 | 187 | 6.0 | 11.0 | 0.00 | 0.00 | 0.00 | 19 | 1011.1 |
| 20260903211618 | 79 | 180 | 8.0 | 12.0 | 0.00 | 0.00 | 0.00 | 20 | 1011.3 |
| 20260903210628 | 78 | 138 | 4.0 | 17.0 | 0.00 | 0.00 | 0.00 | 19 | 1011.4 |
| 20260903205648 | 78 | 261 | 6.0 | 15.0 | 0.00 | 0.00 | 0.00 | 18 | 1011.7 |
| 20260903204619 | 78 | 188 | 4.0 | 19.0 | 0.00 | 0.00 | 0.00 | 19 | 1011.8 |
| 20260903203615 | 78 | 242 | 6.0 | 12.0 | 0.00 | 0.00 | 0.00 | 18 | 1012.0 |
| 20260903202626 | 78 | 231 | 7.0 | 11.0 | 0.00 | 0.00 | 0.00 | 18 | 1012.2 |
| 20260903201617 | 77 | 166 | 7.0 | 11.0 | 0.00 | 0.00 | 0.00 | 19 | 1012.2 |
| 20260903200628 | 77 | 159 | 5.0 | 11.0 | 0.00 | 0.00 | 0.00 | 20 | 1012.3 |
| 20260903195612 | 76 | 211 | 2.0 | 10.0 | 0.00 | 0.00 | 0.00 | 23 | 1012.4 |
| 20260903194643 | 76 | 144 | 8.0 | 15.0 | 0.00 | 0.00 | 0.00 | 22 | 1012.7 |
| 20260903193631 | 76 | 257 | 5.0 | 9.0 | 0.00 | 0.00 | 0.00 | 23 | 1012.7 |
| 20260903192640 | 75 | 253 | 6.0 | 10.0 | 0.00 | 0.00 | 0.00 | 25 | 1012.9 |
| 20260903191630 | 75 | 239 | 6.0 | 10.0 | 0.00 | 0.00 | 0.00 | 23 | 1013.1 |
| 20260903190624 | 75 | 217 | 3.0 | 5.0 | 0.00 | 0.00 | 0.00 | 26 | 1013.2 |
| 20260903185625 | 75 | 271 | 3.0 | 5.0 | 0.00 | 0.00 | 0.00 | 26 | 1013.3 |
| 20260903184614 | 74 | 298 | 2.0 | 5.0 | 0.00 | 0.00 | 0.00 | 27 | 1013.4 |
| 20260903183623 | 73 | 329 | 2.0 | 5.0 | 0.00 | 0.00 | 0.00 | 26 | 1013.5 |
| 20260903182636 | 72 | 16 | 3.0 | 7.0 | 0.00 | 0.00 | 0.00 | 27 | 1013.7 |
| 20260903181622 | 71 | 350 | 2.0 | 6.0 | 0.00 | 0.00 | 0.00 | 26 | 1013.8 |
| 20260903180640 | 71 | 304 | 2.0 | 4.0 | 0.00 | 0.00 | 0.00 | 26 | 1014.0 |
| 20260903175615 | 70 | 314 | 2.0 | 6.0 | 0.00 | 0.00 | 0.00 | 28 | 1014.1 |
| 20260903174624 | 69 | 344 | 3.0 | 5.0 | 0.00 | 0.00 | 0.00 | 29 | 1014.2 |
| 20260903173618 | 69 | 252 | 2.0 | 6.0 | 0.00 | 0.00 | 0.00 | 30 | 1014.2 |
| 20260903172628 | 68 | 308 | 3.0 | 5.0 | 0.00 | 0.00 | 0.00 | 31 | 1014.2 |
| 20260903171638 | 68 | 295 | 3.0 | 5.0 | 0.00 | 0.00 | 0.00 | 33 | 1014.3 |
| 20260903170627 | 67 | 319 | 3.0 | 8.0 | 0.00 | 0.00 | 0.00 | 35 | 1014.4 |
| 20260903165626 | 67 | 288 | 4.0 | 6.0 | 0.00 | 0.00 | 0.00 | 36 | 1014.4 |
| 20260903164620 | 66 | 287 | 2.0 | 5.0 | 0.00 | 0.00 | 0.00 | 40 | 1014.4 |
| 20260903163629 | 65 | 329 | 2.0 | 5.0 | 0.00 | 0.00 | 0.00 | 37 | 1014.5 |
| 20260903162620 | 64 | 5 | 3.0 | 5.0 | 0.00 | 0.00 | 0.00 | 38 | 1014.5 |
| 20260903161615 | 63 | 323 | 2.0 | 4.0 | 0.00 | 0.00 | 0.00 | 40 | 1014.5 |
| 20260903160624 | 62 | 331 | 2.0 | 5.0 | 0.00 | 0.00 | 0.00 | 43 | 1014.5 |
| 20260903155624 | 62 | 320 | 2.0 | 5.0 | 0.00 | 0.00 | 0.00 | 45 | 1014.5 |
| 20260903154615 | 61 | 318 | 1.0 | 3.0 | 0.00 | 0.00 | 0.00 | 44 | 1014.6 |
| 20260903153628 | 60 | 313 | 1.0 | 4.0 | 0.00 | 0.00 | 0.00 | 45 | 1014.6 |
| 20260903152617 | 60 | 287 | 2.0 | 4.0 | 0.00 | 0.00 | 0.00 | 42 | 1014.8 |
| 20260903151648 | 60 | 318 | 3.0 | 6.0 | 0.00 | 0.00 | 0.00 | 45 | 1014.5 |
| 20260903150617 | 59 | 331 | 2.0 | 3.0 | 0.00 | 0.00 | 0.00 | 46 | 1014.6 |
| 20260903145621 | 58 | 331 | 2.0 | 4.0 | 0.00 | 0.00 | 0.00 | 47 | 1014.7 |
| 20260903144632 | 57 | 11 | 1.0 | 3.0 | 0.00 | 0.00 | 0.00 | 46 | 1014.7 |
| 20260903143621 | 56 | 28 | 0.0 | 2.0 | 0.00 | 0.00 | 0.00 | 48 | 1014.7 |
| 20260903142630 | 54 | 28 | 1.0 | 3.0 | 0.00 | 0.00 | 0.00 | 47 | 1014.7 |
| 20260903141625 | 52 | 28 | 2.0 | 3.0 | 0.00 | 0.00 | 0.00 | 51 | 1014.6 |
| 20260903140616 | 50 | 26 | 1.0 | 3.0 | 0.00 | 0.00 | 0.00 | 54 | 1014.6 |